Wind_Speed
33 34 34 33 32 31 30 28 28 29 30 31 31 31 31 32 31 30 29 28 28 27 26 26 28 28 28 29 31 32 33 33 33 34 35 35 34 33 31 30 28 27 27 27 26 25 24 22 20 19 18 17 16 15 14 13 12 11 11 11 11 11 10 9 9 8 7 7 6
34 35 35 34 33 32 30 28 28 28 29 30 30 29 29 30 29 28 27 27 27 26 25 25 28 29 29 29 31 32 33 33 33 34 35 34 33 31 30 28 28 27 27 26 25 24 22 21 19 18 17 16 15 14 13 12 11 11 10 11 11 11 10 9 8 8 7 7 6
34 35 35 34 34 33 31 29 29 29 28 28 27 26 27 27 27 26 26 26 26 26 26 26 28 30 30 30 31 32 32 32 33 34 34 33 31 30 29 28 28 27 27 25 24 23 21 19 18 17 16 16 15 14 13 12 11 10 10 10 10 10 10 9 8 8 7 7 6
34 34 34 34 35 35 34 32 31 30 29 26 24 24 25 25 24 24 25 25 25 26 26 27 28 29 30 31 31 32 32 32 33 33 33 32 30 29 29 29 28 28 26 25 23 22 20 18 17 16 16 16 15 14 13 12 11 10 10 10 10 10 10 9 8 7 7 6 6
34 34 34 35 37 37 36 34 32 30 28 25 22 22 23 23 24 24 24 24 25 26 27 27 28 29 30 31 32 32 32 33 33 32 32 31 30 30 30 30 29 27 26 24 23 21 19 17 17 17 17 16 15 14 13 11 11 10 10 10 10 9 9 8 7 6 6 6 6
34 35 36 36 38 37 36 33 31 28 27 25 24 23 23 23 24 25 25 25 26 26 26 26 27 28 30 31 32 33 33 33 32 32 31 31 31 31 31 30 29 27 26 24 22 20 18 17 18 18 18 16 15 13 12 11 11 10 10 10 9 9 8 7 6 6 5 5 6
36 36 36 36 37 36 34 31 29 28 27 26 25 25 25 23 24 25 26 26 26 26 25 26 27 28 30 32 33 33 33 33 32 31 31 32 32 32 32 30 29 27 26 24 22 20 18 18 19 19 18 16 15 14 13 12 11 10 10 9 9 8 7 6 6 6 5 5 5
35 36 36 35 35 33 31 29 29 28 28 26 27 27 26 25 24 24 25 26 26 26 26 26 27 29 31 32 33 32 32 32 32 31 32 33 33 33 32 30 29 27 26 24 21 20 19 19 20 19 18 16 15 14 13 12 11 10 9 9 8 7 7 6 6 6 5 5 5
32 33 33 32 32 30 29 28 28 28 28 27 28 28 28 26 25 25 25 26 26 26 26 27 28 30 31 32 32 32 32 32 32 32 32 33 34 33 32 30 29 27 25 22 20 19 19 20 19 18 17 16 15 14 13 11 10 9 8 8 7 7 7 6 6 6 5 5 6
30 30 29 28 28 28 27 27 28 28 28 28 28 29 29 28 26 26 25 26 26 26 26 27 29 30 31 31 32 32 32 33 33 33 32 33 33 33 31 30 29 26 23 21 20 19 20 20 19 17 16 15 14 13 12 11 10 9 8 7 7 7 6 6 6 6 6 6 6
30 29 28 27 27 27 27 28 28 28 29 29 29 30 30 29 28 27 26 25 26 26 26 28 30 31 30 30 30 31 31 31 32 32 31 31 31 31 31 30 28 25 23 21 20 20 19 19 18 17 15 14 13 12 11 11 10 9 8 7 7 6 6 6 6 6 6 6 7
29 28 27 27 28 28 29 29 29 29 30 30 30 30 29 29 29 28 27 26 26 26 26 27 29 30 29 28 28 29 30 30 30 29 29 30 30 30 30 28 26 24 22 21 20 19 19 18 17 16 14 13 12 11 11 10 10 9 8 7 6 6 5 5 5 5 6 6 7
28 28 28 28 29 30 30 30 29 29 30 30 30 29 28 28 28 28 28 27 26 25 25 26 28 28 27 27 28 29 29 28 28 28 29 30 30 29 28 26 24 22 21 20 19 18 17 16 15 14 14 12 12 11 11 10 9 8 7 7 6 6 5 5 5 6 6 6 7
28 29 29 30 30 30 30 29 29 29 29 29 28 27 27 27 28 28 28 27 26 25 25 25 26 25 25 26 27 28 29 28 28 28 29 30 29 28 26 24 22 21 21 20 18 16 15 15 14 13 13 12 12 11 10 10 9 8 8 7 7 7 6 6 6 6 6 7 7
29 30 30 31 31 30 29 29 28 27 27 27 26 26 26 27 27 28 28 26 26 25 25 25 25 24 25 26 27 28 29 29 29 29 29 29 28 26 25 23 22 21 20 19 17 15 14 13 13 12 12 12 12 11 11 10 9 9 8 8 8 7 7 6 6 6 7 7 8
29 30 30 31 31 30 29 28 26 26 26 26 25 26 26 26 27 27 27 26 26 26 26 26 25 25 25 27 28 28 29 30 30 29 29 28 26 25 24 23 22 21 20 18 16 15 14 13 12 12 12 12 12 12 11 11 10 9 8 8 7 7 6 6 6 6 7 7 8
28 29 30 30 30 30 29 27 26 25 25 25 26 26 26 26 26 27 27 26 26 26 26 26 26 26 26 27 27 28 28 29 29 28 27 26 25 25 24 23 22 21 19 17 16 15 14 13 12 12 13 13 13 12 12 11 10 10 9 8 7 7 6 6 6 6 7 7 7
28 29 30 30 31 30 29 27 26 26 26 26 27 27 27 26 26 26 26 26 26 26 26 25 25 25 26 26 27 27 28 28 27 26 25 25 25 25 24 23 22 20 19 17 16 14 13 13 12 13 13 13 13 13 12 11 10 10 9 8 7 7 6 6 6 7 7 7 7
28 29 30 30 30 30 28 27 27 26 27 27 27 27 27 27 26 26 25 25 25 26 25 24 23 24 25 25 25 26 26 27 26 25 25 25 25 25 24 23 21 20 18 17 15 14 13 13 12 13 13 13 13 12 12 11 10 9 8 7 6 6 6 6 7 7 7 7 7
28 29 29 29 29 29 28 27 27 27 27 27 27 27 27 26 26 25 24 24 24 24 24 24 24 24 24 24 24 25 25 25 25 26 26 26 25 24 23 21 20 19 18 16 15 14 13 13 13 13 13 13 12 11 10 9 9 8 7 7 6 7 7 7 7 7 7 7 7
27 27 27 27 28 28 28 28 27 27 27 26 27 27 27 26 25 24 24 25 25 25 25 25 25 26 25 25 25 25 25 26 26 26 26 25 24 23 22 21 19 18 16 15 14 14 13 13 13 13 13 12 11 10 9 8 8 7 7 6 7 7 7 7 8 8 8 8 8
25 25 26 26 27 28 28 28 27 27 27 27 27 27 26 25 25 25 26 26 27 26 26 27 27 28 27 27 27 27 27 27 26 26 25 24 22 21 20 18 17 16 15 14 13 13 13 14 14 13 12 10 9 8 8 7 7 6 6 6 7 7 8 8 9 9 9 9 9
25 25 26 27 27 28 28 28 27 27 27 27 27 27 26 26 26 27 27 28 28 27 27 27 28 29 29 29 28 28 28 27 26 24 23 22 21 19 17 16 15 14 14 13 13 13 13 13 12 11 10 8 8 7 7 6 6 6 6 7 7 8 9 9 9 9 9 9 9
25 26 26 27 27 28 28 28 27 27 27 27 27 27 26 27 27 28 29 29 28 28 27 27 28 29 29 29 28 28 27 26 25 23 22 21 19 18 16 15 14 14 13 13 12 12 12 12 10 9 8 7 6 6 5 5 5 6 6 7 8 9 9 9 10 9 8 7 7
25 25 26 26 27 27 27 27 27 27 27 27 27 27 27 28 29 29 29 28 28 28 27 28 28 28 28 28 27 27 26 26 25 24 22 21 19 18 17 15 14 13 13 12 11 11 10 9 9 8 7 6 5 5 5 5 5 6 7 7 8 9 9 9 9 8 7 5 5
25 25 25 25 25 26 26 26 26 27 27 27 27 27 28 28 28 28 28 28 28 28 28 28 28 28 28 28 27 27 26 26 25 24 23 21 20 18 17 15 14 13 12 11 10 8 7 7 6 6 5 5 4 4 4 4 5 6 6 7 8 8 8 8 7 6 5 4 4
25 25 25 25 25 25 25 26 26 27 27 28 28 28 28 28 27 27 28 28 28 28 28 28 28 28 28 28 28 27 27 26 25 23 22 21 20 18 16 15 14 13 11 10 9 7 6 4 3 4 4 4 3 3 3 4 5 6 6 7 7 7 6 5 5 4 3 3 3
25 26 26 26 26 26 26 27 27 27 27 28 28 28 28 27 27 27 28 28 28 28 27 27 28 28 28 28 28 28 27 25 24 22 21 19 18 17 15 14 13 12 11 10 9 7 6 4 2 2 3 3 3 3 4 5 5 6 6 5 5 4 4 3 3 3 3 3 3
26 27 28 28 27 27 27 27 27 27 27 27 28 28 27 27 27 27 28 28 28 28 27 27 28 28 28 28 28 27 25 23 22 21 19 18 17 16 15 14 13 12 10 9 8 7 5 4 2 0 2 3 3 4 5 5 6 5 5 4 3 2 2 2 2 3 3 3 3
27 28 28 28 28 27 27 26 26 26 26 26 27 27 27 26 26 27 27 27 27 27 28 28 29 29 28 28 26 25 23 21 20 19 18 18 17 16 15 13 12 11 9 8 6 5 4 3 2 1 2 3 4 5 5 5 5 4 3 2 2 1 2 2 3 3 3 3 3
27 27 28 28 27 27 26 26 26 26 26 25 26 26 26 26 26 26 26 26 27 28 28 29 29 28 27 25 24 22 21 20 19 18 18 18 17 15 14 13 12 10 9 7 5 4 3 2 2 1 2 4 4 5 5 5 4 3 2 1 1 2 2 3 3 3 3 3 3
26 27 27 27 27 26 26 26 26 25 25 25 25 25 25 25 25 26 27 27 28 28 28 28 27 26 25 23 21 20 20 19 19 18 18 17 15 14 12 11 11 10 8 6 5 4 3 2 2 1 2 3 4 4 4 4 3 2 1 1 2 2 3 3 3 3 3 3 3
26 27 27 27 27 26 26 26 25 25 24 24 24 24 25 26 26 27 28 28 28 28 27 27 26 25 23 22 21 20 19 19 19 18 16 15 13 12 11 10 10 9 7 6 5 3 2 2 2 1 1 3 4 4 4 3 1 1 1 2 2 2 3 3 3 3 4 4 4
27 27 28 27 27 26 25 25 24 24 24 24 24 25 26 27 27 28 28 28 28 27 26 25 24 23 23 22 21 21 20 20 18 17 15 13 12 11 11 10 10 8 7 5 4 3 2 2 2 1 1 3 4 4 3 2 1 1 2 2 2 2 3 3 3 4 4 5 5
27 28 28 28 27 26 26 25 24 24 24 24 25 26 27 27 28 28 27 27 26 26 25 24 23 22 22 21 21 21 20 19 17 15 14 13 12 11 11 11 10 8 6 5 4 3 3 3 2 1 1 3 4 4 3 2 1 2 2 2 2 2 3 3 4 5 5 6 7
26 27 27 27 27 27 27 26 26 26 25 26 26 26 27 27 27 27 26 26 25 25 24 23 23 22 22 22 21 20 18 17 16 14 13 12 11 11 11 11 10 8 6 5 4 3 3 3 3 1 1 3 4 4 3 2 1 1 1 1 1 2 3 4 5 6 6 7 7
24 25 26 27 27 27 28 28 28 27 26 26 27 27 27 27 26 25 25 25 25 25 24 24 23 23 22 21 19 18 17 16 15 14 12 11 10 10 11 11 10 9 7 5 4 4 4 4 2 1 2 4 4 4 4 2 1 1 1 1 2 3 4 5 6 7 7 8 8
22 24 25 26 27 27 28 29 29 28 27 27 27 27 27 26 25 24 24 25 25 25 24 23 22 21 20 19 18 17 15 14 13 12 11 9 9 10 11 11 10 9 7 5 4 4 4 4 2 1 2 4 5 5 4 3 2 2 2 2 3 4 5 6 7 8 8 8 8
22 22 23 25 26 27 27 28 28 28 28 27 26 26 25 25 24 24 24 24 25 24 23 22 21 19 18 17 16 15 14 13 11 10 9 9 8 8 9 10 9 8 7 5 4 3 3 4 3 1 2 4 5 5 5 4 4 4 4 4 5 6 7 8 9 9 9 9 9
22 22 23 23 24 25 26 27 27 27 27 27 26 25 25 25 24 24 24 23 23 22 21 20 19 17 16 16 15 14 13 12 11 9 8 7 7 7 7 8 8 7 6 5 4 3 3 3 3 1 2 3 4 5 5 5 5 6 6 6 7 7 8 9 9 10 10 10 10
22 22 22 22 23 24 25 26 26 27 27 27 26 26 25 25 24 23 22 21 20 19 18 17 17 16 15 14 14 13 12 12 10 9 7 6 6 6 6 6 6 6 5 4 4 3 3 3 3 1 1 3 4 5 6 6 6 6 6 7 7 8 9 9 10 10 11 11 11
Wind_Direction
187 187 187 187 188 191 194 197 199 200 199 198 197 196 195 193 193 193 192 191 190 189 188 187 187 187 187 187 187 187 187 188 190 193 194 195 194 192 189 184 181 179 179 180 181 180 180 178 176 175 175 176 176 175 175 177 181 185 188 190 191 191 191 190 190 191 193 196 200
187 188 188 187 189 191 194 197 200 201 202 202 200 199 198 195 194 192 191 190 190 189 187 186 187 188 189 188 188 188 188 189 190 193 195 195 194 191 186 181 180 180 181 182 183 182 180 178 177 177 179 180 180 178 177 179 183 188 191 192 193 194 195 195 196 197 200 203 207
187 187 187 186 188 190 193 197 200 202 202 202 203 201 198 195 192 189 188 188 189 188 187 186 187 189 189 188 188 188 188 189 190 192 194 194 192 188 183 180 180 181 182 184 184 183 181 178 178 181 184 185 184 181 179 181 186 193 196 196 197 197 198 198 200 203 206 210 213
187 186 185 186 189 191 194 197 199 201 201 201 199 197 194 191 188 187 186 186 186 187 187 186 186 187 188 187 186 186 187 188 190 191 192 191 188 184 181 180 181 182 183 184 185 184 181 179 181 186 190 189 187 183 181 182 189 196 200 200 199 199 199 200 202 205 209 213 218
187 186 187 189 191 193 195 197 197 197 196 194 192 191 188 185 184 184 184 183 183 186 187 185 183 183 185 185 183 183 184 186 188 190 190 188 185 181 180 181 181 182 183 184 185 184 181 180 184 190 194 193 188 184 183 186 191 196 200 199 198 198 200 201 202 206 211 216 221
187 188 189 191 193 194 195 195 194 192 189 186 184 184 183 181 180 179 179 180 183 186 186 183 181 180 180 181 181 181 182 184 187 188 188 185 182 180 180 182 182 181 182 185 185 184 182 183 189 194 195 192 188 185 185 189 193 196 196 195 196 197 199 201 204 209 216 221 225
188 188 189 191 192 192 192 191 189 187 184 181 179 179 179 178 177 175 176 178 181 183 182 180 178 177 177 178 178 179 180 182 185 186 186 183 181 181 182 182 181 182 184 185 184 182 183 188 193 195 194 192 188 186 187 190 192 193 193 192 193 197 200 203 208 213 219 226 231
188 188 189 189 189 189 188 186 184 182 181 179 177 176 176 176 175 174 175 177 179 180 179 178 177 176 176 176 177 177 178 179 181 183 184 182 182 182 183 181 181 183 185 184 181 181 186 193 197 196 193 190 188 187 188 189 190 190 191 191 193 197 201 204 209 215 222 231 237
185 186 187 186 185 185 185 183 181 179 177 176 175 174 173 174 174 174 176 178 179 178 177 176 177 177 176 175 175 175 175 176 179 181 182 182 183 183 181 180 182 182 181 180 179 182 189 196 198 197 193 190 188 187 188 189 190 190 191 192 194 197 201 206 211 218 227 236 244
183 183 182 181 181 181 180 178 177 176 174 171 170 170 170 172 174 176 178 179 178 176 175 175 177 176 174 173 173 173 173 175 177 179 181 182 182 181 180 181 181 179 176 174 178 185 192 196 196 195 192 189 187 186 188 191 193 193 193 193 195 197 200 206 213 223 232 241 248
180 179 177 176 176 175 173 171 170 170 170 168 168 169 171 173 175 177 179 177 176 174 173 174 175 174 173 172 172 172 172 173 176 178 179 180 180 180 180 181 180 176 172 173 179 186 191 193 193 190 187 185 185 187 191 195 198 198 196 195 195 196 200 205 214 224 233 242 249
175 173 172 171 171 170 168 165 165 167 168 169 170 172 174 176 175 175 175 174 173 173 173 174 174 174 173 171 172 172 172 172 174 175 176 177 178 179 181 181 177 173 171 174 180 185 189 190 188 185 181 180 184 190 196 200 202 201 199 197 197 199 202 209 217 227 237 245 252
169 167 166 166 166 165 164 163 163 165 167 169 172 173 173 174 174 172 171 171 171 171 172 173 174 173 171 171 172 172 171 170 170 171 172 174 177 179 180 178 174 170 171 176 180 183 185 186 184 181 178 178 184 193 200 203 204 203 200 199 200 202 206 212 221 231 239 247 253
164 163 163 163 163 163 162 161 162 164 165 167 170 170 169 169 170 170 169 168 167 167 168 169 171 171 171 170 170 169 168 167 167 168 170 174 177 178 177 173 169 169 172 176 179 181 182 182 180 178 176 178 185 192 198 201 202 201 200 200 202 205 210 217 226 236 244 251 258
160 160 160 161 160 160 160 160 160 161 162 163 165 165 164 163 165 167 168 166 165 165 165 165 166 168 169 169 166 165 165 165 165 167 169 173 175 175 172 168 166 169 173 175 176 177 177 176 174 173 175 179 186 191 195 198 200 201 202 204 207 211 217 226 236 247 255 261 266
157 157 158 158 157 157 158 158 158 159 160 160 160 159 158 158 161 163 164 163 164 164 163 163 163 164 166 167 166 164 163 164 165 167 169 171 171 170 168 165 167 169 171 171 170 169 169 167 166 169 175 183 188 192 196 199 203 205 207 210 215 220 227 236 245 254 261 266 270
155 155 156 156 156 156 157 157 159 160 159 157 156 155 154 155 158 160 160 160 160 160 161 162 162 162 162 163 164 163 163 164 165 166 167 167 167 167 166 165 166 167 166 165 163 163 162 162 164 172 182 189 193 197 201 205 209 212 215 218 222 227 233 240 247 254 258 263 267
153 154 155 156 157 157 158 159 160 159 157 155 154 153 153 153 155 157 157 157 158 158 158 159 161 161 161 162 163 163 163 163 163 163 162 163 165 165 164 162 162 163 162 161 161 161 162 165 171 180 188 194 199 203 208 212 215 218 220 222 225 229 236 242 248 253 258 262 266
153 155 156 157 157 158 159 159 158 156 154 153 151 151 151 152 153 153 153 154 155 156 156 155 156 158 159 160 160 161 161 160 158 158 159 161 163 162 160 159 160 162 163 163 163 164 167 173 180 188 194 200 205 208 212 216 219 221 223 225 228 233 238 244 251 256 260 263 267
155 155 156 156 156 155 155 155 154 153 152 151 149 148 149 151 151 150 150 151 152 152 152 151 152 152 153 153 153 153 153 153 154 155 158 160 159 158 158 160 163 165 167 167 168 171 176 183 190 198 204 207 210 211 214 217 221 224 227 230 234 239 245 249 255 258 261 264 266
153 153 153 153 152 151 150 150 150 149 148 146 145 146 147 147 146 146 146 146 147 147 147 147 147 147 146 146 146 147 149 151 153 155 156 157 157 159 163 166 167 167 167 167 170 175 183 191 198 205 210 212 212 213 216 220 223 228 233 239 243 246 251 255 260 263 265 266 268
147 147 147 146 146 144 143 143 144 143 143 142 142 142 142 142 141 141 142 143 143 143 144 145 145 145 144 144 145 147 150 151 153 155 156 157 160 163 166 167 165 163 163 166 173 180 190 197 204 208 211 212 213 215 218 222 227 233 239 246 250 255 259 263 266 269 270 272 272
140 140 139 139 138 137 137 137 138 138 138 138 138 138 138 137 137 138 139 140 141 142 143 144 145 146 146 146 148 149 150 150 152 154 157 160 161 162 162 161 160 160 164 170 179 188 195 201 205 208 209 210 211 215 220 226 234 241 249 255 260 264 267 269 272 274 274 275 274
133 132 132 132 132 132 132 133 134 134 134 134 134 135 135 134 136 137 138 139 140 141 142 145 146 147 149 149 150 150 150 151 152 154 157 159 158 158 157 159 160 163 168 175 183 192 198 202 203 204 205 208 212 219 227 238 248 256 261 265 268 270 272 274 276 276 276 274 271
126 126 126 127 128 129 130 130 131 131 131 131 132 132 132 133 134 136 136 138 139 141 143 144 146 148 149 150 151 152 153 154 155 156 156 157 157 156 157 159 162 166 172 178 186 192 197 198 199 200 204 210 218 228 239 251 260 267 271 273 275 277 278 279 279 277 272 264 258
122 122 123 124 125 126 126 127 127 127 128 129 129 129 130 131 133 134 135 136 138 141 142 143 145 146 148 150 151 152 154 156 157 158 157 156 155 154 155 157 162 168 174 178 181 184 187 191 196 203 211 220 231 242 255 266 273 276 279 281 282 284 286 287 286 279 266 252 246
120 120 121 122 122 122 123 124 124 125 125 126 126 126 128 129 130 131 133 135 137 139 141 142 143 145 148 149 151 152 155 157 159 158 156 152 150 150 153 158 165 169 169 166 163 162 164 173 195 215 226 235 247 263 279 288 290 290 290 290 290 291 292 295 296 291 276 261 257
118 119 119 118 118 118 119 120 121 122 123 124 125 125 126 127 128 129 132 134 136 138 139 140 143 145 147 149 152 155 157 158 156 153 149 146 146 150 156 162 165 164 160 157 156 154 153 153 173 228 252 261 280 298 305 307 305 302 300 299 297 296 297 303 311 313 310 302 295
117 117 117 116 116 116 117 118 120 121 122 123 124 125 125 126 128 130 133 135 136 137 138 140 144 146 148 150 154 156 156 153 150 146 144 144 149 155 161 163 161 157 155 156 157 156 152 146 140 227 291 297 315 322 321 316 311 308 306 304 302 303 310 324 331 333 329 325 320
116 116 116 116 116 117 118 119 120 121 122 123 124 125 126 127 130 132 134 135 136 138 140 143 145 147 149 151 152 151 149 146 144 144 146 151 157 160 161 159 154 150 150 153 154 154 147 136 115 56 326 320 326 328 324 318 314 312 311 312 315 328 341 348 348 347 344 340 336
116 116 116 116 117 117 118 120 121 122 123 124 126 127 128 130 132 133 135 135 137 139 143 145 146 146 147 147 146 144 143 144 146 150 155 159 161 159 156 153 150 147 146 147 147 144 134 112 88 41 337 323 327 328 326 321 319 319 327 345 7 14 12 8 4 2 360 360 359
116 117 116 116 117 117 119 120 122 123 124 126 127 129 130 131 132 134 135 137 139 141 143 144 143 142 141 141 140 141 144 148 154 159 162 162 159 155 153 152 150 147 143 141 139 135 121 94 71 36 338 325 332 334 333 330 331 339 10 40 41 35 29 24 21 19 17 15 11
116 116 116 115 116 117 119 121 123 124 126 127 128 129 130 130 132 133 135 137 139 140 140 140 139 138 138 139 141 145 151 157 161 163 163 161 157 155 153 152 151 147 143 140 138 130 111 88 78 51 332 330 338 342 344 345 356 51 86 77 58 47 41 36 30 25 19 13 5
116 116 115 115 117 118 120 122 123 125 126 126 127 128 130 130 131 132 134 136 138 139 139 138 138 138 139 142 148 154 159 162 164 163 162 161 159 157 155 153 151 148 144 142 139 131 112 101 102 101 328 338 346 353 358 7 51 111 110 90 71 58 45 35 25 16 8 1 354
117 118 118 118 119 120 122 122 124 125 125 126 126 128 130 131 132 133 134 136 137 137 137 137 139 141 144 149 155 160 163 164 163 163 162 162 161 160 157 154 151 148 146 145 144 136 121 113 116 113 348 346 353 360 7 26 79 115 114 95 76 55 35 20 10 2 356 349 345
120 120 120 120 121 122 123 124 125 126 126 126 127 128 130 132 133 134 136 136 136 137 138 140 144 148 153 157 161 163 163 162 161 160 161 163 163 161 158 155 152 150 148 146 141 130 118 113 116 106 348 351 1 8 17 33 79 114 114 89 57 28 12 2 356 351 346 342 340
120 120 120 121 122 124 126 127 128 127 127 127 128 130 131 132 133 135 137 138 138 140 144 147 151 155 157 159 160 159 159 158 157 157 158 160 162 162 160 159 157 153 147 138 129 120 112 111 115 70 350 360 11 19 26 39 63 95 86 48 18 3 355 348 345 342 340 340 340
119 120 121 122 124 126 127 129 128 128 128 129 130 131 132 133 135 137 140 143 144 146 149 152 154 155 156 155 154 153 152 152 151 151 153 157 162 165 166 165 163 157 148 133 120 111 107 110 112 49 357 8 19 27 33 38 43 35 21 6 359 353 348 345 342 341 342 344 346
119 121 123 124 125 126 127 128 128 128 129 130 131 133 134 136 139 142 146 148 149 150 150 151 151 151 150 148 146 146 145 145 146 148 151 156 162 168 172 171 168 161 150 132 116 105 104 108 113 66 3 10 21 28 34 37 35 27 16 5 358 353 350 348 346 346 347 349 352
121 122 123 124 125 126 126 127 128 130 131 132 134 136 139 141 144 146 148 149 149 149 147 146 145 144 143 142 141 142 145 147 149 150 150 150 152 158 165 168 166 161 150 132 113 101 101 108 117 84 3 9 17 24 27 29 29 24 16 7 360 354 351 349 347 346 347 349 350
122 122 122 123 124 125 126 127 129 132 135 137 138 140 142 144 145 146 147 146 145 143 141 139 139 139 140 141 143 146 150 153 155 154 150 144 140 141 145 151 154 152 144 130 115 102 102 110 121 103 4 8 13 17 19 20 20 16 9 1 354 348 345 342 341 342 343 343 344
Height
732 734 735 738 741 744 746 747 749 749 750 750 750 750 750 751 753 755 758 760 762 763 765 766 768 769 771 773 774 775 776 778 780 782 784 786 787 789 790 791 793 794 796 797 798 799 799 799 800 801 802 803 804 804 805 806 807 808 809 809 810 810 810 810 810 810 811 811 811
730 732 734 736 739 742 744 746 747 748 749 749 749 750 750 752 754 756 758 760 762 764 765 766 767 769 770 772 773 774 776 778 779 782 784 786 788 789 791 792 794 796 797 799 799 800 800 800 801 802 803 804 804 804 805 806 807 809 809 809 810 810 810 810 810 810 811 811 811
729 730 732 734 737 739 742 744 745 746 747 749 750 752 753 754 755 756 758 759 761 763 765 765 766 768 769 771 773 774 776 778 779 782 784 786 788 790 791 793 795 797 798 799 800 801 801 801 801 802 804 804 804 804 805 806 807 809 809 809 810 810 810 810 810 810 811 811 811
727 729 730 732 734 736 738 740 742 744 746 748 751 752 753 754 756 757 758 759 761 763 764 764 765 767 768 770 772 774 776 778 779 782 784 786 788 790 791 793 795 796 798 799 801 801 801 801 801 803 804 804 804 804 804 806 807 808 809 809 809 809 810 810 810 810 811 811 811
726 727 729 730 731 733 735 737 739 742 744 747 750 752 753 754 755 757 759 760 761 762 763 764 765 766 768 769 772 774 776 777 779 781 784 786 787 789 790 792 794 796 798 799 800 801 800 800 801 803 804 804 804 804 804 805 807 808 809 809 809 809 809 809 810 810 810 811 811
725 726 727 729 730 732 734 736 739 741 743 745 748 751 753 754 755 756 758 759 760 762 763 764 765 767 768 769 771 773 775 776 778 781 784 785 786 787 789 791 794 796 797 799 799 799 799 800 802 803 804 803 803 803 804 805 806 807 808 809 809 809 809 809 809 809 810 810 811
723 724 726 727 729 731 734 736 738 740 742 744 745 749 752 754 755 756 757 758 760 761 763 764 765 767 768 769 771 772 774 775 777 780 783 784 784 786 788 790 793 795 796 797 798 798 799 800 802 803 803 803 802 803 804 805 806 807 808 808 808 808 808 809 809 809 809 810 810
722 723 724 726 728 731 733 735 737 739 740 742 744 746 750 754 755 756 757 758 760 761 763 764 765 766 768 769 770 771 773 774 777 780 782 782 783 784 787 789 793 794 795 795 796 797 799 801 802 802 802 802 802 802 803 804 806 807 807 808 808 808 808 808 808 809 809 809 809
723 724 725 727 729 731 733 734 736 737 739 741 742 745 748 752 754 756 757 759 760 761 762 763 764 766 768 769 770 771 772 773 776 779 780 781 782 784 787 789 792 794 794 794 795 797 799 801 801 801 801 801 802 802 804 804 806 807 807 807 807 807 807 807 808 808 808 809 809
722 724 726 728 729 731 732 734 735 737 739 740 742 744 746 749 753 755 757 759 761 762 762 763 764 766 768 769 769 770 771 773 775 778 779 781 783 785 787 790 792 792 792 793 794 797 800 801 801 801 801 801 802 803 804 805 806 806 806 807 807 806 807 807 807 807 808 808 808
721 723 725 727 729 730 732 733 735 737 738 740 742 743 745 748 750 753 756 759 761 762 762 763 764 765 767 768 769 770 771 773 775 777 779 782 784 786 789 790 791 791 791 792 795 798 800 801 801 801 801 801 802 803 804 805 806 806 806 806 806 806 806 806 806 807 807 807 808
720 722 724 726 728 729 731 732 734 736 738 739 741 742 744 746 748 751 755 759 761 762 762 763 764 765 767 768 769 770 771 773 775 778 780 782 784 787 789 790 790 790 791 793 796 799 800 801 801 801 801 801 802 804 805 806 806 806 805 805 805 805 805 805 806 806 806 807 807
720 722 724 725 727 729 730 732 734 735 737 739 740 742 743 744 746 749 754 757 759 761 763 764 764 766 767 768 769 770 771 773 775 777 780 782 785 787 789 790 790 790 791 794 797 799 800 800 801 800 801 801 803 804 805 806 806 805 805 804 804 804 804 805 805 805 805 806 806
719 721 723 724 726 728 730 732 733 735 737 739 740 741 743 744 746 749 753 756 759 761 762 764 765 766 767 768 769 770 771 773 775 777 779 782 785 787 789 789 789 790 793 795 797 799 799 800 800 800 801 802 803 804 805 806 805 805 804 804 804 804 804 804 804 804 804 805 805
719 720 722 724 726 728 730 732 734 735 737 739 740 741 743 744 747 750 753 756 758 760 762 764 765 766 767 768 769 770 771 773 774 777 779 782 785 787 788 789 789 791 794 795 797 798 799 799 799 800 800 802 804 804 805 805 805 804 804 803 803 803 803 803 803 803 804 804 804
719 721 722 724 726 728 730 732 734 736 737 739 740 741 743 745 748 750 753 755 757 759 761 763 764 766 767 769 769 770 772 773 775 777 780 783 785 787 788 788 790 792 794 796 797 798 798 799 799 799 800 802 803 804 804 804 804 804 803 803 802 802 802 802 802 802 803 803 803
720 721 723 724 725 727 729 732 734 736 737 739 740 741 743 745 748 751 753 754 757 759 761 763 764 765 767 769 770 771 772 774 776 778 781 784 786 787 788 789 791 793 794 795 796 797 798 798 799 799 801 802 803 803 804 804 804 803 802 802 801 801 801 801 801 802 802 802 802
721 722 723 724 725 727 729 731 734 735 737 738 739 741 743 745 748 750 753 754 756 758 760 762 764 766 767 769 770 772 773 775 777 780 783 785 787 788 789 790 791 792 794 795 796 797 798 798 799 800 801 801 802 802 803 803 803 802 801 801 800 800 800 800 800 801 801 801 801
721 722 723 724 725 726 729 731 733 735 737 738 739 741 743 746 748 750 753 754 756 758 760 763 765 767 769 770 771 773 774 776 779 781 784 786 788 788 789 789 791 792 793 794 796 797 798 799 799 800 801 801 801 802 802 802 802 801 800 800 799 799 799 799 800 800 800 800 800
721 722 723 724 725 726 728 730 733 735 737 738 739 741 744 746 749 750 753 755 757 759 761 764 766 768 770 771 773 774 776 778 780 783 784 786 786 787 788 789 790 792 793 794 795 797 798 799 800 801 801 801 801 801 801 801 801 800 799 799 799 798 799 799 799 799 799 799 799
721 722 723 724 725 726 728 730 733 735 737 739 740 742 744 747 749 751 753 755 757 759 762 764 766 768 770 772 774 776 777 779 781 782 783 784 785 786 788 789 790 792 793 794 795 796 798 799 800 801 801 801 801 800 800 800 799 799 798 798 798 798 798 798 798 799 799 799 799
721 723 724 725 726 727 729 731 734 735 737 739 741 743 745 748 750 751 753 755 757 759 762 764 766 768 770 772 774 776 778 779 780 781 782 784 785 787 789 790 791 792 794 795 796 797 798 799 800 801 801 800 800 799 799 799 798 798 797 797 797 797 797 797 798 798 798 798 798
721 723 724 725 727 728 730 732 734 736 738 740 742 744 746 748 750 751 753 755 757 760 763 765 767 769 770 772 774 775 777 779 780 782 783 785 786 788 789 791 792 793 794 795 796 798 799 800 800 800 800 799 799 799 798 798 797 796 796 796 796 796 796 797 797 797 797 797 797
722 723 725 727 728 730 732 734 735 737 739 741 743 745 747 749 750 751 753 756 758 761 764 766 768 769 771 773 774 776 777 779 781 783 785 786 787 789 790 791 793 794 794 795 797 798 799 800 800 799 799 798 798 797 797 796 796 795 795 795 795 796 796 796 796 796 796 796 796
723 725 727 728 730 732 734 735 737 738 740 742 744 746 747 749 750 752 754 757 759 762 764 767 768 770 772 774 775 777 778 780 781 783 785 787 788 789 790 791 793 794 795 796 797 799 799 799 799 799 798 797 797 796 795 795 795 794 794 794 795 795 795 795 795 795 795 795 795
725 727 729 731 732 734 735 737 739 740 741 743 745 747 748 750 751 753 755 758 761 763 765 767 769 771 773 774 776 778 779 781 782 784 785 786 788 789 790 791 793 794 795 797 798 798 798 798 798 797 797 796 796 795 794 794 794 794 794 794 794 794 794 794 794 794 794 794 794
727 729 731 733 734 736 737 739 740 741 743 744 746 748 749 751 753 755 757 760 762 765 767 768 770 772 774 775 777 778 780 781 783 784 785 786 787 789 790 792 793 795 796 797 798 798 798 797 797 796 796 795 795 794 794 794 793 794 794 794 794 794 793 793 793 793 793 793 793
729 730 732 734 735 737 739 740 742 743 744 746 748 749 751 752 754 757 759 762 764 766 768 769 771 773 774 776 778 779 780 782 783 784 785 786 787 789 791 793 794 795 796 797 797 797 797 796 796 796 795 794 794 794 793 793 793 793 793 793 793 793 793 793 793 792 793 793 793
730 731 733 734 736 738 740 742 744 745 747 748 749 751 753 754 757 759 761 763 765 767 768 770 772 774 775 777 779 780 781 783 784 785 786 787 788 790 792 793 794 796 796 796 796 796 796 796 795 795 794 794 793 793 793 793 793 793 793 793 793 792 792 792 792 792 792 792 792
732 733 734 736 738 740 742 744 746 748 749 750 752 753 755 757 759 761 763 765 766 767 769 770 772 774 776 777 779 780 782 783 784 785 786 787 789 791 792 794 794 795 795 796 795 795 795 795 795 794 794 793 793 792 792 792 792 792 792 792 792 792 792 792 792 792 792 792 792
734 735 736 738 739 742 744 746 748 750 751 753 754 756 758 759 762 764 765 766 767 768 770 771 773 775 776 778 779 781 782 784 784 786 787 789 790 791 793 794 794 794 795 795 795 795 795 795 794 794 793 792 792 792 792 792 792 792 792 792 792 792 792 791 791 791 791 791 791
736 737 738 739 741 744 746 748 750 752 754 756 757 759 760 762 763 764 765 766 768 769 771 772 774 775 777 779 780 781 783 784 786 787 789 789 791 792 792 793 794 794 794 795 795 795 794 794 794 793 793 792 792 792 792 792 792 792 792 791 791 791 791 791 791 791 791 791 791
738 739 740 741 743 745 748 750 752 754 756 758 759 760 762 763 764 765 766 767 769 770 771 773 774 776 777 779 781 783 784 785 787 788 789 790 791 791 792 793 793 794 794 794 794 794 794 794 793 793 792 792 792 792 792 792 792 791 791 791 791 791 791 791 791 791 791 791 791
740 741 742 744 745 748 750 752 754 756 758 759 760 762 762 763 764 766 767 768 769 771 772 774 775 777 779 780 782 784 785 787 788 789 789 790 790 791 792 793 793 794 794 794 794 794 793 793 793 793 792 792 792 792 791 791 791 791 791 791 791 791 791 791 791 791 790 790 790
743 743 744 746 747 749 751 754 755 757 759 760 762 763 764 764 766 767 768 769 771 772 774 776 777 779 780 782 784 785 786 787 788 788 789 789 790 791 792 792 793 793 794 793 793 793 793 793 793 792 792 792 792 791 791 791 791 791 791 791 791 791 791 791 790 790 790 790 790
745 745 746 747 749 750 752 754 757 759 760 761 763 764 765 766 767 769 770 771 772 774 776 778 779 781 782 784 785 786 786 787 787 788 789 789 790 791 791 792 792 793 793 793 793 793 793 793 792 792 792 791 791 791 791 791 791 791 791 791 791 791 790 790 790 790 790 789 789
748 748 749 749 751 752 754 756 758 760 761 763 764 765 766 768 769 770 772 773 774 776 777 779 781 782 783 784 785 786 786 787 787 788 789 789 790 790 791 792 792 793 793 793 793 793 793 792 792 791 791 791 791 791 791 790 790 791 790 790 790 790 790 790 790 789 789 789 789
750 751 751 752 753 754 756 758 759 761 763 764 765 766 768 769 770 772 773 774 775 777 779 780 781 783 784 784 785 786 787 787 788 788 789 789 790 790 791 791 792 792 792 793 793 792 792 792 792 791 791 791 791 791 791 790 790 790 790 790 790 790 790 789 789 789 789 789 789
753 754 754 755 756 757 758 759 761 762 764 765 767 768 769 771 772 774 775 776 777 778 779 780 782 783 784 784 785 786 787 788 788 789 789 790 790 791 791 791 792 792 792 792 792 792 792 792 791 791 791 791 791 791 791 790 790 790 790 790 790 789 789 789 789 789 789 788 788
755 756 757 758 758 759 760 761 763 764 765 767 768 769 771 772 774 775 776 777 778 779 780 781 782 783 784 785 786 786 787 788 789 789 790 790 791 791 791 791 792 792 792 792 792 792 792 792 791 791 791 791 791 791 790 790 790 790 790 789 789 789 789 789 789 789 788 788 787
757 758 759 760 761 761 762 763 764 766 767 768 769 771 772 773 775 776 777 779 779 780 781 782 783 784 785 785 786 787 787 788 789 789 790 790 791 791 791 791 791 792 792 792 792 792 792 792 792 791 791 791 790 790 790 790 790 790 789 789 789 789 789 788 788 788 787 787 787